Location: Caltech
(34.1382°N, 118.1253°W)
Time: 00:00:56
(UTC-08:00)

Cosmos 1697 Rocket - Visible Passes

Search period start: 24 February 2018 00:00
Search period end: 06 March 2018 00:00
Orbit: 834 x 842 km, 71.0° (Epoch: 23 February)

Date Brightness Start Highest point End Pass type
(mag) Time Alt. Az. Time Alt. Az. Time Alt. Az.
24 Feb 4.4 03:40:13 24° NNE 03:40:13 24° NNE 03:42:22 10° NNE visible
24 Feb 4.6 05:21:58 11° NW 05:21:58 11° NW 05:23:19 10° NNW visible
25 Feb 4.9 03:24:50 18° NNE 03:24:50 18° NNE 03:26:13 10° NNE visible
25 Feb 4.6 05:06:35 12° NW 05:06:35 12° NW 05:07:34 10° NNW visible
26 Feb 5.2 03:09:22 14° NNE 03:09:22 14° NNE 03:10:03 10° NNE visible
26 Feb 4.7 04:51:06 11° NNW 04:51:06 11° NNW 04:51:44 10° NNW visible
27 Feb 5.5 02:53:49 10° NNE 02:53:49 10° NNE 02:53:52 10° NNE visible
27 Feb 4.9 04:35:34 11° NNW 04:35:34 11° NNW 04:35:51 10° NNW visible
